Simultaneous Nadir Overpasses (SNOs) Predictions

Prediction of SNOs between METOP-B and NPP Satellite Orbit:

Table of predicted SNOs for the next 14.0 days since TLE Epoch: 5/30/2015
Index Date (METOP-B) Time (METOP-B) Lat,Lon (METOP-B) SZA (METOP-B ) Date (NPP) Time (NPP) Lat,Lon (NPP) SZA (NPP ) Distance(km) Time Diff (sec)
1 06/01/2015 12:28:18 73.73, -12.64 51.67 06/01/2015 12:27:12 73.75, -15.82 51.82 98.87 66
2 06/01/2015 13:19:01 -73.66, 154.52 128.41 06/01/2015 13:17:54 -73.66, 151.70 128.29 88.12 67
3 06/01/2015 14:09:46 73.41, -38.73 51.36 06/01/2015 14:08:36 73.45, -40.51 51.48 56.84 70
4 06/01/2015 15:00:28 -73.34, 128.44 128.72 06/01/2015 14:59:17 -73.37, 127.00 128.62 46.19 71
5 06/01/2015 15:51:12 73.13, -64.68 51.09 06/01/2015 15:49:59 73.16, -65.23 51.15 18.09 73
6 06/01/2015 16:41:55 -73.06, 102.50 128.98 06/01/2015 16:40:41 -73.07, 102.27 128.95 7.59 74
7 06/01/2015 17:32:36 73.01, -90.29 50.97 06/01/2015 17:31:26 73.01, -90.29 50.99 0.66 70
8 06/01/2015 18:23:18 -72.99, 77.00 129.06 06/01/2015 18:22:09 -72.98, 77.10 129.06 3.27 69
9 06/01/2015 19:13:58 72.98,-115.68 50.94 06/01/2015 19:12:55 72.97,-115.57 50.93 3.83 63
10 06/01/2015 20:04:39 -73.01, 51.72 129.04 06/01/2015 20:03:39 -72.99, 51.71 129.06 3.08 60
11 06/01/2015 20:55:19 73.01,-140.96 50.95 06/01/2015 20:54:26 73.02,-141.07 50.98 3.84 53
12 06/01/2015 21:46:01 -72.99, 26.32 129.07 06/01/2015 21:45:09 -72.99, 26.32 129.06 0.27 52
13 06/01/2015 22:36:41 72.98,-166.35 50.92 06/01/2015 22:35:55 72.98,-166.35 50.92 0.56 46
14 06/01/2015 23:27:23 -72.96, 0.93 129.11 06/01/2015 23:26:39 -73.00, 0.93 129.07 3.60 44
15 06/02/2015 00:18:03 72.96, 168.26 50.89 06/02/2015 00:17:25 72.99, 168.27 50.92 2.87 38
16 06/02/2015 01:08:44 -72.99, -24.35 129.09 06/02/2015 01:08:09 -73.00, -24.45 129.07 3.58 35
17 06/02/2015 01:59:24 72.99, 142.97 50.90 06/02/2015 01:58:55 72.99, 142.88 50.92 3.11 29
18 06/02/2015 02:50:06 -72.97, -49.74 129.12 06/02/2015 02:49:38 -72.96, -49.73 129.13 0.97 28
19 06/02/2015 03:40:46 72.96, 117.58 50.87 06/02/2015 03:40:24 72.95, 117.60 50.86 1.77 22
20 06/02/2015 04:31:28 -72.94, -75.13 129.15 06/02/2015 04:31:08 -72.96, -75.12 129.13 2.44 20
21 06/02/2015 05:22:08 72.94, 92.19 50.84 06/02/2015 05:21:54 72.95, 92.21 50.86 1.84 14
22 06/02/2015 06:12:49 -72.97,-100.42 129.14 06/02/2015 06:12:38 -72.97,-100.51 129.13 2.96 11
23 06/02/2015 07:03:29 72.96, 66.91 50.86 06/02/2015 07:03:24 72.96, 66.83 50.86 2.75 5
24 06/02/2015 07:54:11 -72.94,-125.81 129.17 06/02/2015 07:54:07 -72.93,-125.79 129.19 2.22 4
25 06/02/2015 08:44:51 72.94, 41.52 50.83 06/02/2015 08:44:53 72.91, 41.54 50.80 2.97 2
26 06/02/2015 09:35:33 -72.92,-151.20 129.20 06/02/2015 09:35:37 -72.93,-151.17 129.19 1.44 4
27 06/02/2015 10:26:13 72.92, 16.13 50.79 06/02/2015 10:26:23 72.92, 16.16 50.80 1.18 10
28 06/02/2015 11:16:54 -72.95,-176.48 129.19 06/02/2015 11:17:07 -72.94,-176.56 129.19 2.80 13
29 06/02/2015 12:07:34 72.94, -9.16 50.81 06/02/2015 12:07:53 72.93, -9.23 50.79 2.89 19
30 06/02/2015 12:58:16 -72.92, 158.13 129.22 06/02/2015 12:58:37 -72.94, 158.05 129.20 3.39 21
31 06/02/2015 13:48:56 72.92, -34.55 50.78 06/02/2015 13:49:23 72.93, -34.62 50.79 2.78 27
32 06/02/2015 14:39:38 -72.90, 132.74 129.25 06/02/2015 14:40:06 -72.90, 132.77 129.25 1.11 28
33 06/02/2015 15:30:18 72.89, -59.94 50.75 06/02/2015 15:30:52 72.89, -59.90 50.73 1.50 34
34 06/02/2015 16:20:59 -72.92, 107.45 129.23 06/02/2015 16:21:36 -72.90, 107.38 129.26 3.17 37
35 06/02/2015 17:11:40 72.87, -85.33 50.72 06/02/2015 17:12:22 72.89, -85.29 50.73 3.17 42
36 06/02/2015 18:02:21 -72.90, 82.06 129.26 06/02/2015 18:03:06 -72.91, 82.00 129.26 2.42 45
37 06/02/2015 18:53:01 72.89,-110.62 50.73 06/02/2015 18:53:52 72.90,-110.67 50.73 1.95 51
38 06/02/2015 19:43:43 -72.88, 56.67 129.29 06/02/2015 19:44:35 -72.87, 56.72 129.32 1.84 52
39 06/02/2015 20:34:23 72.87,-136.01 50.70 06/02/2015 20:35:21 72.86,-135.95 50.67 2.43 58
40 06/02/2015 21:25:05 -72.85, 31.28 129.33 06/02/2015 21:26:05 -72.87, 31.33 129.32 2.71 60
41 06/02/2015 22:15:45 72.85,-161.40 50.67 06/02/2015 22:16:51 72.86,-161.34 50.67 2.47 66
42 06/02/2015 23:06:26 -72.88, 6.00 129.31 06/02/2015 23:07:35 -72.88, 5.94 129.32 1.81 69
43 06/02/2015 23:57:07 72.82, 173.21 50.64 06/02/2015 23:58:21 72.87, 173.27 50.67 5.41 74
44 06/03/2015 00:47:50 -72.75, -19.60 129.43 06/03/2015 00:49:03 -72.78, -19.23 129.43 12.63 73
45 06/03/2015 01:38:35 72.49, 147.20 50.33 06/03/2015 01:39:45 72.57, 148.51 50.34 44.69 70
46 06/03/2015 02:29:17 -72.47, -45.51 129.69 06/03/2015 02:30:27 -72.48, -44.00 129.76 50.49 70
47 06/03/2015 03:20:02 72.21, 121.31 50.07 06/03/2015 03:21:09 72.27, 123.73 50.01 82.59 67
48 06/03/2015 04:10:45 -72.14, -71.50 130.00 06/03/2015 04:11:51 -72.18, -68.79 130.09 92.38 66
